Temperature
5 5 4 4 4 4 4 3 3 3 3 3 3 4 4 4 4 4 4 5 5 5 5 5 5 5 5 5 5 5 5 5 5 5 4 4 4 4
4 4 4 4 4 3 3 3 3 3 2 3 3 3 3 3 4 4 4 4 4 4 4 4 4 4 4 4 4 4 4 4 4 4 4 4 4 4
4 4 4 3 3 3 3 3 2 2 2 2 3 3 3 3 3 3 3 3 3 4 4 4 4 3 3 3 3 3 3 3 3 3 3 3 3 3
3 3 3 3 2 2 2 2 2 2 2 2 2 2 2 3 3 3 3 3 3 3 3 3 3 3 3 3 3 3 3 3 3 3 3 3 3 3
2 2 2 2 2 2 2 2 2 2 1 1 1 2 2 2 2 2 2 2 2 2 2 2 2 2 2 2 2 2 2 2 2 2 2 2 2 3
2 1 1 1 1 1 1 1 1 1 1 1 1 1 1 1 1 1 1 2 2 2 2 2 2 2 2 2 2 2 2 2 2 2 2 2 2 2
1 1 1 1 1 1 1 1 1 1 1 0 0 0 0 1 0 1 1 1 1 1 1 1 1 1 1 1 1 1 1 1 1 1 1 1 1 1
0 1 0 1 0 0 0 0 0 0 0 0 -0 -0 0 0 0 -0 -0 -0 0 1 1 1 1 1 1 1 1 1 1 1 1 1 1 1 1 1
-0 -0 -0 0 -0 0 0 -0 -0 -0 -0 -0 -0 -0 -0 -0 -0 -0 -0 -0 -0 0 -0 0 0 0 0 0 0 0 0 0 0 0 0 0 1 1
-1 -0 -0 -0 -0 -0 -0 -0 -0 -0 -1 -1 -1 -1 -1 -1 -1 -1 -1 -1 -1 -1 -1 -1 -0 -0 0 -0 -0 -0 -0 -0 -0 -0 -0 -0 -0 0
-1 -1 -1 -1 -1 -1 -1 -1 -1 -1 -1 -1 -1 -1 -1 -1 -2 -2 -2 -2 -2 -1 -1 -2 -1 -1 -1 -0 -0 -1 -1 -1 -1 -1 -1 -1 -1 -1
-1 -1 -1 -1 -1 -1 -1 -1 -1 -1 -1 -1 -1 -2 -2 -2 -2 -2 -2 -3 -2 -2 -2 -2 -2 -2 -2 -1 -1 -1 -1 -1 -1 -1 -1 -1 -1 -1
-2 -2 -2 -2 -2 -2 -2 -2 -2 -2 -2 -2 -2 -2 -2 -2 -2 -3 -3 -3 -3 -3 -3 -3 -3 -3 -3 -3 -2 -2 -2 -2 -2 -2 -2 -2 -2 -2
-2 -2 -2 -2 -2 -2 -2 -2 -2 -3 -3 -3 -3 -3 -3 -3 -3 -3 -3 -3 -3 -4 -3 -4 -4 -4 -4 -4 -3 -3 -3 -3 -3 -2 -2 -2 -2 -2
-3 -3 -3 -3 -3 -3 -3 -3 -3 -3 -3 -3 -3 -3 -3 -3 -3 -3 -3 -4 -4 -4 -4 -4 -4 -4 -4 -4 -4 -4 -3 -3 -3 -3 -3 -3 -3 -3
-4 -3 -4 -4 -4 -3 -3 -3 -3 -3 -4 -4 -4 -4 -4 -4 -4 -4 -4 -4 -4 -4 -4 -4 -4 -4 -4 -4 -4 -4 -4 -4 -4 -4 -4 -4 -4 -4
-4 -4 -4 -4 -4 -4 -4 -4 -4 -4 -4 -5 -5 -5 -4 -5 -5 -5 -5 -5 -5 -5 -4 -4 -5 -5 -5 -5 -5 -5 -5 -5 -5 -4 -5 -4 -4 -4
-5 -5 -5 -5 -5 -5 -5 -5 -5 -5 -5 -5 -5 -5 -5 -5 -5 -5 -5 -5 -5 -5 -5 -5 -5 -5 -5 -5 -5 -5 -5 -5 -5 -5 -5 -5 -5 -5
-5 -5 -5 -5 -5 -6 -6 -5 -5 -5 -5 -5 -5 -5 -5 -5 -5 -5 -6 -6 -6 -6 -6 -6 -6 -6 -6 -6 -6 -5 -6 -5 -6 -6 -6 -6 -6 -5
-6 -6 -6 -6 -6 -6 -6 -6 -6 -6 -6 -6 -6 -6 -6 -6 -6 -6 -6 -6 -6 -6 -6 -6 -6 -6 -7 -7 -7 -6 -6 -6 -6 -6 -6 -6 -6 -5
-6 -6 -6 -6 -6 -6 -6 -6 -6 -6 -6 -6 -6 -6 -6 -6 -6 -6 -6 -7 -7 -7 -7 -6 -6 -7 -7 -7 -7 -6 -6 -6 -6 -6 -6 -6 -6 -6
-6 -6 -6 -7 -7 -7 -7 -7 -7 -6 -6 -6 -6 -6 -6 -7 -7 -7 -7 -7 -7 -7 -7 -7 -7 -7 -7 -7 -7 -7 -6 -6 -6 -7 -7 -7 -7 -7
-7 -7 -7 -7 -7 -7 -7 -7 -7 -7 -7 -7 -7 -7 -7 -7 -7 -7 -7 -7 -7 -7 -7 -7 -7 -7 -7 -7 -7 -7 -7 -7 -7 -7 -6 -6 -7 -6
Wind_Speed
3 3 3 3 3 2 2 3 3 4 5 4 3 3 4 4 6 6 6 8 9 10 10 10 11 11 10 10 9 10 10 10 10 11 12 12 13 13
2 3 3 3 3 3 3 3 4 5 5 4 4 4 4 6 8 6 7 9 10 10 10 10 10 9 9 9 10 10 10 10 11 11 12 12 13 13
2 3 3 3 3 3 3 3 4 4 7 6 4 4 4 4 5 6 7 7 8 10 10 10 9 9 9 9 9 10 10 10 11 12 12 13 13 14
3 3 4 3 4 3 3 4 4 4 5 7 5 4 4 4 4 4 5 6 7 10 11 10 9 9 9 10 10 10 10 10 11 11 12 13 13 14
4 4 4 4 5 4 4 4 4 4 4 5 6 4 4 3 4 4 4 4 7 8 10 10 10 10 10 10 10 10 10 10 11 11 12 13 14 14
4 5 5 5 5 5 5 5 4 4 4 5 5 4 4 3 2 4 5 4 5 6 8 9 9 10 10 10 10 10 10 11 11 11 12 13 13 14
4 5 5 6 7 6 5 5 5 5 4 5 5 4 3 3 3 3 5 5 5 4 4 5 5 5 7 9 10 10 10 10 10 11 12 12 12 13
5 5 5 6 7 9 10 9 8 6 6 5 5 6 6 5 4 4 4 4 4 3 3 5 3 5 5 7 9 10 10 10 10 11 11 12 12 12
5 5 5 5 6 5 7 9 8 9 9 7 7 7 6 5 5 5 5 5 6 4 3 5 4 5 6 8 10 10 10 9 10 10 11 12 12 11
5 5 5 5 5 5 5 5 6 6 7 5 6 6 6 6 6 6 6 6 5 4 3 4 4 5 5 7 10 10 9 8 9 10 10 11 10 10
5 5 5 5 8 8 5 5 6 5 6 7 8 8 9 8 5 3 3 4 5 4 2 3 3 3 4 4 7 8 8 8 9 10 10 9 9 8
4 5 7 8 9 9 5 4 6 5 4 4 5 6 5 5 6 4 4 4 4 3 2 2 2 2 3 3 3 4 5 7 9 8 8 8 8 5
4 4 5 9 10 9 7 5 7 6 3 4 4 3 3 3 3 4 4 4 5 4 2 2 2 2 3 3 3 3 3 3 4 6 7 8 8 6
5 4 5 9 9 9 7 7 8 6 3 3 3 4 3 4 4 4 4 5 5 6 5 4 3 3 3 4 4 2 2 3 3 3 4 7 7 7
4 7 8 9 8 6 7 8 6 3 3 4 5 4 4 4 3 3 3 3 3 4 4 4 3 3 3 4 4 3 3 3 3 3 3 3 4 4
4 6 8 8 6 6 6 5 3 3 3 4 4 4 3 3 3 3 3 3 3 3 3 4 4 4 4 4 4 4 3 3 3 3 3 4 4 4
3 2 2 3 3 3 3 3 3 3 4 3 3 4 3 3 3 2 2 2 3 4 3 2 2 3 4 4 4 4 4 4 3 3 3 4 4 4
3 2 3 3 4 4 4 4 3 3 3 4 4 4 4 4 4 3 2 3 4 4 3 2 1 2 2 2 5 5 4 3 3 3 3 4 6 5
3 3 3 4 4 4 4 4 4 4 4 4 4 4 4 4 4 3 3 3 4 4 3 2 2 3 3 4 3 4 3 3 3 4 3 4 6 6
2 3 4 4 4 4 4 4 4 4 4 4 4 4 4 4 4 4 4 4 4 4 4 3 3 4 5 5 4 4 6 4 3 4 4 4 5 8
3 3 4 4 4 4 4 4 4 4 4 4 4 4 4 4 4 4 4 6 5 4 5 5 4 5 3 1 2 4 4 6 6 5 4 4 5 4
4 4 4 4 4 4 4 4 4 4 4 4 4 4 4 4 4 5 4 4 4 4 4 4 3 2 2 3 4 5 5 5 5 7 7 7 4 3
4 4 4 4 4 4 4 5 5 5 5 5 4 4 4 4 4 4 4 4 4 4 3 3 3 2 3 3 4 4 5 5 4 4 4 7 8 9
Wind_Direction
233 235 234 232 225 227 218 209 223 259 273 266 274 275 289 290 293 293 289 288 286 284 282 278 275 272 270 269 269 269 268 268 269 267 268 269 269 270
250 241 243 244 240 229 224 227 229 239 259 260 258 274 282 289 288 292 287 290 283 281 279 278 274 271 271 271 267 271 274 273 272 272 271 271 270 270
268 258 255 253 245 242 238 236 238 236 254 271 267 273 271 280 295 292 289 285 282 280 278 277 276 275 273 272 272 272 275 276 275 273 272 273 270 270
260 262 264 262 252 249 246 245 244 241 246 269 277 275 271 276 280 285 292 289 281 278 278 276 273 273 274 271 270 273 275 276 277 278 275 273 272 269
244 247 255 256 256 253 248 248 251 255 248 257 271 272 274 282 287 290 290 284 286 283 281 277 275 274 276 275 271 271 273 277 279 278 277 278 275 274
245 243 247 247 250 254 251 245 249 254 254 255 265 272 273 280 274 282 291 283 286 290 284 280 279 277 277 274 275 275 273 273 275 279 278 277 278 280
254 252 253 259 261 260 261 249 243 246 249 255 262 272 276 287 275 269 276 287 284 273 276 277 274 269 271 272 271 271 270 272 276 281 281 279 277 278
256 262 268 266 273 274 273 267 257 248 246 247 259 257 261 263 267 272 277 288 282 262 265 277 262 264 265 263 271 275 276 277 279 281 283 282 280 280
248 257 271 273 279 272 275 278 273 267 259 252 251 253 259 257 256 264 263 267 265 264 272 273 261 261 263 266 274 276 278 283 287 289 290 288 284 278
245 246 255 264 273 277 270 272 269 267 264 255 251 258 262 260 251 254 261 271 275 265 240 261 262 261 277 268 268 270 280 288 292 294 294 292 291 287
252 252 257 259 273 283 279 274 277 279 281 273 270 270 272 273 274 269 268 278 278 266 232 248 270 280 277 264 264 274 281 290 296 296 296 297 298 299
262 258 263 269 273 277 263 258 269 275 281 291 289 288 283 278 277 256 252 269 282 269 233 244 268 308 295 269 263 273 275 284 292 294 298 302 303 301
264 266 266 274 277 278 277 259 267 278 271 267 271 278 279 273 270 259 247 250 259 261 248 239 261 259 260 285 293 277 267 274 282 280 291 296 297 293
263 266 271 281 284 285 284 279 282 285 276 270 268 269 270 272 274 268 263 258 254 256 251 229 239 243 258 275 281 289 286 270 265 274 282 295 293 293
272 279 284 287 290 286 282 284 284 273 269 269 266 266 263 267 271 278 281 282 283 273 250 239 236 242 242 255 268 275 289 282 262 272 282 284 280 278
280 280 286 289 291 288 288 289 281 265 265 260 266 269 272 272 273 275 278 282 288 295 278 252 245 235 247 256 255 267 264 264 277 282 283 283 277 266
274 268 266 278 282 287 291 289 281 276 275 271 269 273 274 271 273 274 268 275 273 279 291 291 276 261 247 242 256 256 258 263 260 270 283 288 281 268
273 255 262 266 269 277 281 285 280 273 270 269 266 264 263 260 266 268 264 259 265 268 268 267 289 317 324 291 237 241 249 263 272 267 264 277 284 279
258 256 262 267 270 271 271 274 277 273 269 266 266 264 261 258 259 260 257 262 264 266 268 254 242 245 269 285 275 234 243 270 278 277 269 267 275 281
254 256 263 268 270 270 270 272 275 277 270 264 262 261 258 257 258 256 252 253 260 265 268 258 240 238 249 265 273 277 269 255 258 272 280 283 278 279
261 260 262 265 266 266 268 270 269 269 270 267 263 260 257 255 256 253 252 258 261 258 260 262 255 270 272 266 280 284 278 274 272 270 275 283 288 283
259 262 264 265 264 263 265 266 268 269 267 265 265 263 259 254 255 259 256 255 255 253 258 266 266 265 249 248 262 277 289 295 298 293 276 265 259 253
262 263 264 265 264 263 261 262 264 267 267 265 263 261 259 255 254 254 255 253 252 252 258 264 265 260 257 251 257 270 278 290 302 310 305 300 282 272
Height
1490 1490 1491 1491 1492 1492 1492 1492 1493 1490 1487 1487 1487 1487 1487 1486 1486 1485 1484 1483 1482 1481 1480 1480 1480 1479 1479 1478 1478 1478 1477 1477 1477 1477 1476 1476 1476 1475
1486 1486 1486 1487 1487 1487 1487 1487 1487 1487 1484 1482 1483 1483 1482 1482 1481 1480 1479 1478 1477 1476 1475 1475 1474 1474 1474 1473 1473 1472 1472 1472 1472 1471 1471 1470 1470 1469
1482 1482 1482 1482 1482 1482 1482 1482 1482 1482 1479 1478 1478 1478 1477 1477 1476 1475 1474 1473 1472 1471 1471 1470 1469 1468 1468 1468 1467 1467 1466 1466 1466 1466 1465 1464 1464 1464
1477 1477 1477 1477 1477 1477 1477 1477 1476 1476 1475 1473 1473 1472 1472 1471 1471 1470 1469 1468 1467 1466 1465 1464 1464 1463 1462 1462 1462 1461 1460 1460 1460 1459 1459 1458 1458 1457
1473 1472 1472 1472 1471 1472 1472 1472 1471 1471 1470 1469 1468 1467 1467 1466 1465 1464 1464 1462 1462 1461 1460 1459 1458 1458 1457 1456 1456 1455 1455 1454 1454 1453 1453 1452 1451 1451
1468 1468 1468 1467 1467 1467 1467 1467 1466 1466 1465 1464 1463 1462 1462 1461 1460 1459 1457 1457 1456 1456 1455 1454 1453 1452 1451 1451 1450 1450 1449 1449 1448 1447 1447 1446 1445 1444
1463 1463 1463 1462 1462 1462 1462 1461 1461 1460 1460 1459 1458 1457 1456 1456 1455 1454 1453 1451 1450 1450 1449 1448 1447 1446 1446 1445 1445 1444 1444 1443 1442 1441 1441 1440 1439 1438
1458 1458 1458 1458 1458 1457 1457 1456 1456 1456 1454 1454 1453 1452 1451 1451 1450 1449 1448 1446 1444 1445 1444 1442 1442 1441 1440 1440 1439 1439 1438 1437 1436 1436 1435 1434 1434 1433
1454 1453 1453 1453 1453 1452 1451 1451 1451 1450 1450 1450 1448 1447 1447 1446 1445 1444 1443 1442 1440 1440 1439 1436 1436 1435 1435 1434 1433 1433 1432 1431 1431 1430 1429 1428 1428 1427
1449 1448 1448 1448 1447 1447 1446 1445 1445 1444 1444 1444 1443 1443 1442 1441 1441 1440 1438 1437 1436 1435 1434 1431 1430 1429 1428 1428 1427 1427 1426 1426 1425 1424 1423 1423 1422 1422
1444 1444 1443 1443 1442 1442 1441 1440 1439 1439 1439 1438 1438 1437 1437 1436 1436 1435 1433 1432 1429 1428 1428 1427 1424 1423 1422 1421 1421 1421 1420 1420 1419 1419 1418 1417 1417 1416
1439 1438 1438 1438 1438 1437 1436 1435 1434 1433 1433 1432 1432 1432 1431 1431 1430 1429 1428 1427 1424 1423 1423 1422 1420 1419 1416 1415 1416 1415 1415 1414 1414 1414 1413 1412 1411 1410
1433 1433 1433 1433 1432 1432 1431 1430 1429 1428 1427 1427 1426 1426 1425 1425 1424 1424 1423 1422 1420 1419 1418 1417 1416 1414 1413 1410 1410 1410 1409 1409 1408 1408 1407 1406 1406 1405
1428 1428 1428 1428 1427 1426 1425 1425 1424 1423 1422 1421 1421 1420 1419 1418 1418 1418 1417 1416 1415 1414 1413 1413 1411 1410 1409 1406 1405 1404 1405 1404 1403 1402 1402 1401 1400 1400
1423 1423 1423 1422 1422 1421 1420 1419 1419 1418 1417 1416 1415 1414 1414 1413 1413 1412 1411 1411 1410 1409 1408 1408 1407 1406 1405 1403 1401 1400 1399 1399 1398 1397 1397 1396 1395 1394
1419 1418 1418 1417 1417 1416 1415 1414 1413 1413 1412 1411 1410 1409 1409 1408 1408 1407 1406 1405 1405 1404 1404 1403 1402 1401 1400 1399 1398 1396 1395 1394 1393 1393 1392 1391 1390 1389
1414 1413 1413 1412 1411 1410 1409 1409 1408 1407 1407 1406 1405 1405 1404 1404 1403 1402 1402 1401 1400 1398 1398 1398 1398 1396 1395 1394 1393 1391 1391 1390 1389 1388 1387 1385 1385 1385
1410 1408 1408 1407 1406 1406 1405 1404 1403 1403 1402 1402 1401 1400 1400 1399 1399 1398 1397 1397 1395 1394 1394 1393 1393 1391 1390 1389 1389 1387 1386 1385 1385 1384 1382 1380 1379 1379
1405 1404 1403 1403 1402 1401 1400 1399 1399 1398 1398 1397 1396 1396 1396 1395 1394 1393 1393 1392 1391 1390 1390 1389 1388 1387 1385 1383 1383 1384 1382 1381 1380 1379 1378 1376 1374 1373
1400 1399 1399 1398 1397 1397 1396 1395 1394 1394 1393 1393 1392 1391 1391 1390 1390 1389 1388 1387 1387 1386 1385 1385 1384 1383 1382 1380 1378 1377 1378 1377 1375 1373 1372 1371 1369 1369
1396 1395 1395 1394 1393 1392 1392 1391 1390 1389 1389 1388 1387 1387 1386 1386 1385 1384 1383 1383 1382 1381 1380 1379 1379 1380 1378 1377 1374 1372 1372 1372 1371 1369 1368 1366 1364 1362
1391 1391 1390 1390 1389 1388 1387 1386 1385 1385 1384 1383 1383 1382 1381 1381 1380 1379 1379 1378 1377 1376 1376 1375 1375 1374 1373 1372 1369 1367 1366 1366 1366 1365 1364 1363 1361 1358
1387 1387 1386 1385 1384 1384 1383 1382 1381 1380 1379 1379 1378 1377 1377 1376 1375 1375 1374 1374 1373 1372 1371 1371 1370 1369 1368 1367 1366 1364 1362 1361 1360 1359 1358 1358 1357 1356